Погода в Лондоне

Великобритания     51°30′26″N   0°07′39″E
темп.,
°C
ветер,
м/с
пор.,
м/с
влажн.,
%
обл.,
%
осадки,
мм/ч
давл.,
гПа
погр.,
м
15 мая, сб
сб1501:00+9ю2690100 0.3 1006267
04:00+8юв2790100 0.0 1004341
07:00+9ююв2695100 0.7 1002439
10:00+8юв3894100 2.1 1000588
13:00+9в2394100 2.3 999398
16:00+13зсз357019 0.1 999906
19:00+12зюз3789100 1.4 999558
22:00+10зюз4108996 2.0 1000447
16 мая, вс
вс1601:00+8юз399712 2.4 1000351
04:00+7юз289899 0.0 999271
07:00+8юз2794100 0.0 999287
10:00+13юз456552 0.0 9991142
13:00+11ююз4878100 0.7 999813
16:00+13ююз4681100 1.1 997962
19:00+12ююз2490100 2.4 997451
22:00+10зюз2497100 0.3 99891
17 мая, пн
пн1701:00+9зюз2596100 0.4 999162
04:00+7зюз259743 0.0 1000127
07:00+8зюз2595100 0.0 1002206
10:00+10з2488100 0.0 1004428
13:00+15з2364100 0.4 10041214
16:00+14зсз357931 2.4 1005828
19:00+13зсз368562 4.3 1005549
22:00+10сз399180 1.6 1008372
18 мая, вт
вт1801:00+8з3893100 1.8 1010280
04:00+7з3993100 0.0 1011274
07:00+7зюз3891100 0.0 1012246
10:00+13з4763100 0.0 10141226
13:00+15з574788 0.1 10142085
16:00+15з585019 0.1 10151763
19:00+13з49610 0.5 10161331
22:00+10зюз310841 0.2 1017621
19 мая, ср
ср1901:00+8зюз4118716 0.2 1017524
04:00+7зюз41090100 0.0 1016419
07:00+8зюз488589 0.0 1017340
10:00+10зюз478289 0.0 1018525
13:00+15з5759100 0.4 10181686
16:00+16зсз575373 0.5 10181714
19:00+14з4769100 0.7 1018961
22:00+11зюз3780100 0.0 1018489